GEFSCGP_prec_meanprecacc_330.txt.gz
Total_Precipitation_Accumulation
0.04 0.05 0.06 0.08 0.10 0.07 0.08 0.12 0.17 0.20 0.17 0.22 0.37 0.63 0.88 1.01 1.33 1.30 1.32 1.50 1.63 1.74 2.06 2.49 2.79 3.33 3.93 4.35 4.76 4.92 4.97 4.88 4.71 4.37 4.06 3.83 3.58 3.36 3.11 2.93 2.83 2.75 2.69 2.90
0.04 0.07 0.06 0.06 0.07 0.08 0.10 0.13 0.16 0.21 0.21 0.29 0.48 0.70 0.99 1.02 1.11 1.18 1.11 1.19 1.38 1.73 2.00 2.53 2.84 3.05 3.48 3.98 4.44 4.75 4.95 4.83 4.45 4.10 3.94 3.85 3.80 3.39 3.11 3.10 3.23 3.06 3.06 3.12
0.05 0.07 0.06 0.06 0.06 0.09 0.13 0.14 0.16 0.17 0.22 0.41 0.54 0.99 1.22 1.09 1.05 1.08 1.09 1.20 1.38 1.81 2.28 2.58 2.79 2.92 3.16 3.55 3.85 3.95 4.14 4.11 3.95 4.00 4.02 3.99 4.00 3.59 3.53 3.54 3.54 3.33 3.33 3.34
0.04 0.05 0.05 0.07 0.09 0.11 0.15 0.13 0.11 0.13 0.24 0.51 0.59 1.22 1.58 1.32 1.20 1.32 1.38 1.36 1.63 1.91 1.96 2.18 2.47 2.74 2.91 3.14 3.46 3.67 3.73 3.68 3.61 3.73 3.80 3.71 3.53 3.42 3.59 3.86 3.79 3.51 3.30 3.17
0.05 0.05 0.07 0.08 0.08 0.09 0.12 0.12 0.13 0.17 0.27 0.47 0.60 0.97 1.49 1.45 1.54 1.55 1.48 1.55 1.82 1.80 1.70 1.83 2.03 2.35 2.49 2.81 3.09 3.28 3.54 3.63 3.57 3.65 3.64 3.68 3.51 3.51 3.57 3.59 3.64 3.44 3.26 2.94
0.05 0.07 0.07 0.07 0.08 0.09 0.10 0.13 0.23 0.32 0.47 0.82 0.64 0.76 1.29 1.44 1.35 1.34 1.39 1.37 1.54 1.51 1.49 1.71 1.89 2.18 2.36 2.49 2.62 2.72 2.93 3.19 3.37 3.42 3.39 3.44 3.39 3.38 3.34 3.32 3.21 3.02 2.87 2.66
0.11 0.12 0.10 0.09 0.09 0.11 0.11 0.21 0.64 1.02 1.21 1.21 0.64 0.73 1.23 1.18 1.11 1.10 1.22 1.27 1.29 1.23 1.22 1.46 1.62 1.80 2.01 2.13 2.24 2.37 2.63 2.98 3.08 3.04 3.00 3.11 3.18 3.20 3.14 3.12 2.97 2.76 2.54 2.31
0.18 0.24 0.15 0.10 0.11 0.12 0.14 0.19 0.55 0.90 1.00 1.00 0.82 1.19 1.61 1.17 1.03 1.05 1.11 1.12 1.08 1.02 0.98 1.12 1.40 1.72 1.89 1.89 1.95 2.10 2.39 2.65 2.69 2.62 2.76 3.02 3.09 3.14 3.06 3.09 2.77 2.52 2.31 2.26
0.13 0.13 0.10 0.10 0.14 0.14 0.15 0.16 0.24 0.43 0.52 0.79 1.05 1.31 1.33 0.86 0.80 0.87 0.95 0.98 1.08 1.06 0.99 1.06 1.17 1.39 1.53 1.59 1.65 1.80 2.22 2.49 2.58 2.65 2.77 2.90 3.00 2.98 2.95 2.86 2.56 2.31 2.32 2.28
0.08 0.09 0.10 0.10 0.12 0.15 0.15 0.18 0.23 0.34 0.56 0.87 1.08 1.33 1.45 1.04 0.84 0.64 0.63 0.71 0.76 0.81 0.84 0.91 0.96 1.08 1.19 1.37 1.63 1.80 1.94 2.25 2.36 2.44 2.60 2.63 2.88 2.81 2.65 2.59 2.35 2.11 2.03 2.10
0.08 0.08 0.11 0.12 0.15 0.17 0.18 0.17 0.19 0.25 0.36 0.63 1.12 1.32 1.01 0.84 0.69 0.66 0.67 0.76 0.76 0.76 0.75 0.80 0.94 1.07 1.17 1.31 1.51 1.62 1.66 1.85 2.00 2.13 2.34 2.36 2.39 2.47 2.52 2.33 2.06 1.96 1.98 2.05
0.07 0.07 0.11 0.17 0.23 0.20 0.17 0.15 0.18 0.25 0.25 0.37 0.68 0.94 0.70 0.73 0.72 0.65 0.73 0.83 0.91 0.88 0.81 0.86 1.03 1.16 1.23 1.37 1.41 1.44 1.52 1.72 1.91 2.08 2.29 2.36 2.34 2.37 2.38 2.22 2.02 1.98 2.03 2.09
0.09 0.09 0.16 0.35 0.47 0.31 0.19 0.15 0.17 0.19 0.17 0.28 0.58 0.86 0.61 0.54 0.66 0.84 1.19 1.38 1.13 0.94 0.86 0.94 1.06 1.11 1.12 1.22 1.35 1.38 1.39 1.59 1.81 2.01 2.31 2.47 2.49 2.43 2.33 2.12 1.90 1.83 1.83 1.92
0.14 0.09 0.15 0.38 0.52 0.43 0.30 0.20 0.17 0.14 0.17 0.23 0.34 0.67 0.61 0.60 0.68 0.90 1.12 1.05 1.00 0.90 0.84 0.95 0.99 1.13 1.12 1.15 1.29 1.30 1.37 1.46 1.70 1.92 2.11 2.23 2.10 2.04 2.02 1.91 1.76 1.70 1.71 1.75
0.18 0.12 0.10 0.16 0.28 0.31 0.28 0.25 0.21 0.17 0.14 0.25 0.33 0.47 0.56 0.61 0.75 0.97 1.15 1.11 1.03 0.84 0.74 0.82 0.84 0.91 0.97 1.11 1.24 1.16 1.20 1.25 1.37 1.54 1.64 1.77 1.75 1.73 1.72 1.78 1.82 1.82 1.86 1.82
0.23 0.23 0.18 0.20 0.24 0.28 0.31 0.28 0.21 0.16 0.14 0.19 0.30 0.47 0.58 0.65 0.78 0.93 0.96 0.84 0.74 0.66 0.55 0.53 0.71 0.82 0.79 0.83 0.94 0.90 0.94 1.07 1.22 1.30 1.40 1.63 1.75 1.76 1.75 1.82 1.95 1.96 1.92 1.92
0.29 0.32 0.32 0.31 0.30 0.29 0.38 0.36 0.27 0.18 0.17 0.24 0.37 0.55 0.72 0.63 0.64 0.74 0.78 0.76 0.70 0.68 0.54 0.50 0.58 0.74 0.75 0.76 0.78 0.89 1.01 1.14 1.25 1.39 1.54 1.71 1.82 1.90 1.91 1.88 2.00 1.96 1.97 2.04
0.45 0.47 0.41 0.38 0.50 0.57 0.42 0.34 0.32 0.31 0.29 0.31 0.44 0.47 0.63 0.65 0.68 0.80 0.81 0.81 0.67 0.62 0.54 0.54 0.55 0.57 0.62 0.69 0.76 0.93 1.22 1.47 1.52 1.67 1.85 1.94 2.06 2.01 1.98 1.98 2.02 2.10 2.20 2.24
0.40 0.59 0.57 0.55 0.68 0.59 0.50 0.35 0.39 0.44 0.59 0.60 0.70 0.70 0.65 0.65 0.75 0.83 0.71 0.65 0.67 0.60 0.56 0.59 0.66 0.68 0.74 0.79 0.84 1.02 1.26 1.57 1.76 1.81 1.91 2.05 2.15 2.19 2.20 2.21 2.18 2.27 2.40 2.36
0.44 0.60 0.74 0.68 0.83 0.81 0.67 0.51 0.51 0.63 1.10 0.93 0.88 0.91 0.80 0.76 0.92 1.01 0.91 0.83 0.78 0.72 0.68 0.70 0.73 0.85 1.04 1.11 1.13 1.24 1.37 1.52 1.71 1.78 1.89 2.07 2.30 2.35 2.37 2.52 2.61 2.57 2.52 2.38
0.77 0.83 0.86 0.85 0.91 0.99 0.82 0.73 0.76 1.21 1.52 1.15 0.99 0.99 0.98 1.10 1.15 1.10 0.95 0.95 0.90 0.79 0.80 0.78 0.81 0.97 1.22 1.35 1.39 1.49 1.63 1.72 1.73 1.82 1.96 2.14 2.32 2.41 2.49 2.66 2.74 2.72 2.66 2.63
0.98 1.03 1.02 1.03 1.23 1.41 0.95 0.89 1.33 1.62 1.35 1.34 1.34 1.30 1.21 1.19 1.14 1.09 0.98 0.96 0.91 0.86 0.91 0.95 0.99 1.15 1.39 1.56 1.53 1.61 1.70 1.72 1.76 1.77 1.91 2.04 2.19 2.21 2.31 2.59 2.68 2.78 2.80 2.75
1.07 1.18 1.26 1.39 1.51 1.37 1.13 1.20 1.38 1.51 1.66 1.57 1.47 1.49 1.32 1.31 1.21 1.11 1.04 0.99 0.95 0.91 0.96 1.03 1.09 1.27 1.54 1.73 1.76 1.84 1.74 1.80 1.84 1.86 1.99 2.13 2.21 2.26 2.36 2.48 2.53 2.63 2.70 2.64
1.32 1.17 1.37 1.63 1.66 1.54 1.38 1.22 1.14 1.27 1.39 1.38 1.39 1.39 1.34 1.31 1.22 1.13 1.04 0.96 0.95 0.96 0.91 0.97 1.10 1.20 1.32 1.53 1.74 1.86 1.88 1.93 1.93 1.96 2.02 2.11 2.22 2.22 2.30 2.43 2.53 2.64 2.74 2.81
1.54 1.36 1.58 1.88 1.76 1.63 1.59 1.46 1.35 1.43 1.50 1.41 1.34 1.33 1.34 1.29 1.23 1.09 1.06 1.03 0.99 0.97 0.93 0.98 1.08 1.13 1.19 1.28 1.42 1.50 1.63 1.76 1.82 1.90 1.97 2.00 2.04 2.14 2.26 2.32 2.43 2.41 2.49 2.52
1.60 1.60 1.86 2.19 1.91 1.75 1.70 1.53 1.39 1.46 1.44 1.51 1.62 1.60 1.37 1.27 1.35 1.28 1.14 1.05 1.03 1.03 1.02 1.04 1.08 1.08 1.10 1.17 1.32 1.44 1.54 1.69 1.85 1.95 1.98 1.93 1.88 1.96 2.04 2.13 2.15 2.17 2.06 2.05

GEFSCGP_prec_meanprecacc_336.txt.gz
Total_Precipitation_Accumulation
0.04 0.06 0.07 0.09 0.10 0.07 0.09 0.13 0.18 0.21 0.18 0.23 0.39 0.64 0.91 1.06 1.36 1.31 1.33 1.50 1.63 1.75 2.06 2.49 2.80 3.33 3.93 4.37 4.78 4.96 5.01 4.91 4.74 4.40 4.09 3.86 3.61 3.40 3.14 2.95 2.85 2.77 2.70 2.91
0.06 0.08 0.06 0.06 0.07 0.09 0.10 0.14 0.17 0.22 0.21 0.29 0.49 0.71 1.03 1.04 1.12 1.19 1.11 1.19 1.39 1.74 2.01 2.53 2.85 3.05 3.48 4.01 4.47 4.80 4.98 4.86 4.47 4.13 3.98 3.88 3.83 3.43 3.15 3.13 3.26 3.07 3.08 3.13
0.07 0.07 0.06 0.07 0.07 0.09 0.13 0.15 0.17 0.17 0.23 0.41 0.55 1.02 1.27 1.12 1.07 1.09 1.10 1.20 1.39 1.83 2.30 2.59 2.80 2.92 3.17 3.57 3.87 3.98 4.17 4.13 3.97 4.02 4.05 4.02 4.04 3.63 3.56 3.57 3.57 3.36 3.35 3.36
0.06 0.05 0.06 0.07 0.10 0.12 0.16 0.14 0.12 0.14 0.25 0.52 0.61 1.29 1.68 1.39 1.25 1.34 1.39 1.37 1.64 1.93 1.98 2.20 2.49 2.76 2.93 3.16 3.47 3.69 3.75 3.70 3.63 3.75 3.83 3.74 3.56 3.45 3.61 3.89 3.82 3.54 3.32 3.19
0.06 0.06 0.07 0.08 0.09 0.10 0.13 0.13 0.14 0.19 0.29 0.51 0.65 1.02 1.56 1.52 1.64 1.61 1.49 1.55 1.82 1.81 1.71 1.84 2.05 2.38 2.50 2.83 3.11 3.31 3.56 3.65 3.59 3.67 3.67 3.71 3.55 3.54 3.60 3.61 3.67 3.47 3.28 2.97
0.06 0.07 0.07 0.08 0.08 0.09 0.12 0.16 0.26 0.35 0.50 0.89 0.72 0.80 1.37 1.50 1.42 1.41 1.40 1.38 1.55 1.51 1.49 1.72 1.90 2.20 2.37 2.50 2.64 2.74 2.96 3.22 3.40 3.44 3.41 3.46 3.42 3.41 3.38 3.37 3.27 3.07 2.91 2.71
0.11 0.13 0.11 0.09 0.10 0.11 0.11 0.25 0.70 1.08 1.25 1.24 0.66 0.78 1.29 1.20 1.12 1.12 1.24 1.28 1.29 1.23 1.22 1.46 1.63 1.80 2.02 2.13 2.25 2.39 2.67 3.01 3.10 3.06 3.02 3.13 3.21 3.23 3.18 3.16 3.02 2.81 2.58 2.36
0.19 0.25 0.16 0.11 0.12 0.13 0.14 0.22 0.62 0.95 1.04 1.03 0.83 1.22 1.62 1.18 1.03 1.05 1.14 1.16 1.09 1.02 0.98 1.13 1.40 1.72 1.90 1.89 1.96 2.12 2.42 2.68 2.71 2.64 2.79 3.05 3.12 3.16 3.09 3.13 2.81 2.56 2.37 2.31
0.14 0.14 0.11 0.11 0.14 0.14 0.16 0.19 0.28 0.46 0.55 0.84 1.09 1.36 1.35 0.86 0.80 0.88 0.96 1.00 1.11 1.07 0.99 1.07 1.17 1.40 1.53 1.60 1.67 1.82 2.24 2.51 2.60 2.68 2.80 2.92 3.03 3.00 2.97 2.89 2.62 2.36 2.37 2.32
0.12 0.11 0.12 0.11 0.12 0.15 0.16 0.19 0.24 0.35 0.60 0.92 1.14 1.42 1.51 1.06 0.85 0.65 0.63 0.74 0.81 0.83 0.84 0.92 0.97 1.09 1.20 1.38 1.65 1.84 1.98 2.28 2.39 2.48 2.63 2.66 2.90 2.82 2.67 2.63 2.41 2.16 2.06 2.12
0.11 0.11 0.13 0.13 0.15 0.17 0.18 0.18 0.19 0.26 0.39 0.69 1.20 1.39 1.04 0.85 0.71 0.67 0.67 0.77 0.80 0.78 0.75 0.81 0.94 1.08 1.18 1.32 1.54 1.67 1.70 1.89 2.05 2.18 2.39 2.39 2.41 2.48 2.55 2.38 2.11 2.01 2.01 2.07
0.08 0.09 0.14 0.18 0.23 0.21 0.18 0.16 0.19 0.26 0.27 0.40 0.74 1.02 0.72 0.75 0.73 0.66 0.73 0.84 0.91 0.88 0.81 0.86 1.03 1.16 1.24 1.38 1.43 1.48 1.55 1.76 1.94 2.12 2.33 2.39 2.37 2.41 2.45 2.30 2.10 2.04 2.06 2.11
0.09 0.11 0.21 0.39 0.48 0.33 0.20 0.16 0.17 0.19 0.18 0.31 0.64 0.92 0.62 0.56 0.69 0.85 1.19 1.38 1.13 0.95 0.87 0.94 1.06 1.11 1.12 1.23 1.37 1.41 1.43 1.64 1.86 2.07 2.36 2.52 2.56 2.52 2.43 2.23 1.97 1.87 1.85 1.94
0.14 0.11 0.19 0.45 0.56 0.45 0.30 0.20 0.17 0.14 0.18 0.28 0.42 0.74 0.64 0.63 0.72 0.92 1.13 1.06 1.01 0.91 0.87 0.97 1.00 1.13 1.12 1.16 1.30 1.33 1.40 1.50 1.76 1.99 2.19 2.32 2.21 2.14 2.11 1.98 1.81 1.73 1.73 1.77
0.18 0.14 0.13 0.19 0.30 0.32 0.29 0.26 0.21 0.17 0.14 0.28 0.40 0.56 0.62 0.63 0.77 0.99 1.17 1.14 1.04 0.85 0.78 0.83 0.84 0.92 0.98 1.11 1.24 1.17 1.22 1.29 1.43 1.63 1.73 1.87 1.84 1.79 1.77 1.82 1.85 1.84 1.88 1.83
0.23 0.24 0.21 0.21 0.25 0.29 0.32 0.31 0.24 0.19 0.16 0.22 0.34 0.56 0.67 0.68 0.79 0.96 0.99 0.88 0.76 0.69 0.58 0.54 0.71 0.82 0.79 0.84 0.95 0.91 0.96 1.11 1.26 1.34 1.45 1.68 1.79 1.80 1.79 1.85 1.97 1.98 1.94 1.93
0.29 0.33 0.34 0.32 0.30 0.30 0.40 0.40 0.31 0.23 0.24 0.26 0.39 0.57 0.74 0.64 0.65 0.76 0.80 0.78 0.73 0.71 0.56 0.50 0.58 0.75 0.75 0.77 0.79 0.91 1.03 1.17 1.27 1.41 1.56 1.75 1.86 1.93 1.94 1.91 2.04 1.99 1.99 2.07
0.45 0.49 0.43 0.40 0.51 0.59 0.45 0.36 0.34 0.36 0.35 0.33 0.46 0.49 0.64 0.65 0.69 0.82 0.81 0.81 0.68 0.63 0.55 0.55 0.55 0.57 0.63 0.70 0.78 0.94 1.23 1.48 1.53 1.68 1.87 1.97 2.09 2.04 2.01 2.02 2.06 2.15 2.23 2.27
0.40 0.59 0.59 0.56 0.69 0.61 0.53 0.38 0.41 0.47 0.62 0.63 0.72 0.71 0.66 0.65 0.76 0.86 0.72 0.65 0.68 0.60 0.56 0.59 0.66 0.69 0.75 0.81 0.85 1.03 1.27 1.58 1.77 1.82 1.92 2.07 2.18 2.22 2.23 2.24 2.23 2.32 2.45 2.40
0.44 0.60 0.75 0.70 0.85 0.84 0.71 0.53 0.52 0.66 1.15 0.95 0.88 0.93 0.81 0.76 0.94 1.05 0.93 0.84 0.79 0.73 0.68 0.70 0.74 0.86 1.05 1.12 1.13 1.25 1.37 1.52 1.72 1.79 1.90 2.08 2.32 2.38 2.40 2.55 2.66 2.62 2.58 2.44
0.78 0.84 0.88 0.87 0.93 1.01 0.84 0.74 0.76 1.23 1.56 1.18 0.99 0.99 0.99 1.11 1.17 1.12 0.97 0.97 0.91 0.80 0.81 0.79 0.82 0.98 1.23 1.36 1.40 1.50 1.64 1.73 1.74 1.82 1.97 2.16 2.34 2.44 2.52 2.71 2.80 2.78 2.72 2.70
0.98 1.04 1.03 1.05 1.25 1.44 0.97 0.93 1.35 1.64 1.37 1.36 1.35 1.30 1.21 1.19 1.15 1.10 1.01 1.02 0.96 0.87 0.92 0.96 1.00 1.16 1.39 1.56 1.54 1.62 1.72 1.74 1.77 1.78 1.93 2.06 2.21 2.23 2.32 2.62 2.72 2.83 2.88 2.83
1.07 1.18 1.26 1.41 1.55 1.39 1.14 1.22 1.38 1.51 1.67 1.57 1.47 1.49 1.32 1.32 1.22 1.12 1.06 1.02 0.99 0.92 0.97 1.04 1.10 1.29 1.56 1.74 1.78 1.86 1.77 1.84 1.87 1.89 2.02 2.16 2.24 2.28 2.38 2.51 2.56 2.66 2.75 2.71
1.32 1.17 1.37 1.64 1.66 1.56 1.42 1.24 1.14 1.27 1.40 1.38 1.39 1.39 1.34 1.31 1.23 1.14 1.06 1.00 0.97 0.98 0.93 0.99 1.12 1.23 1.34 1.56 1.77 1.89 1.92 1.96 1.96 1.99 2.06 2.15 2.26 2.24 2.33 2.46 2.57 2.68 2.77 2.85
1.55 1.36 1.59 1.89 1.77 1.63 1.60 1.46 1.35 1.43 1.50 1.41 1.34 1.33 1.34 1.29 1.23 1.10 1.08 1.05 1.02 1.00 0.96 1.01 1.12 1.17 1.22 1.30 1.45 1.53 1.67 1.79 1.85 1.93 2.01 2.04 2.08 2.17 2.29 2.36 2.47 2.45 2.52 2.55
1.63 1.62 1.88 2.22 1.92 1.76 1.71 1.53 1.39 1.46 1.44 1.51 1.62 1.60 1.38 1.27 1.35 1.28 1.16 1.07 1.06 1.08 1.07 1.09 1.14 1.13 1.14 1.21 1.37 1.49 1.59 1.73 1.89 1.99 2.03 1.98 1.92 2.00 2.07 2.16 2.18 2.20 2.09 2.07

GEFSCGP_prec_meanprecacc_342.txt.gz
Total_Precipitation_Accumulation
0.05 0.07 0.08 0.11 0.11 0.09 0.10 0.14 0.20 0.24 0.20 0.25 0.42 0.68 0.97 1.12 1.41 1.34 1.35 1.52 1.65 1.77 2.08 2.52 2.82 3.35 3.94 4.37 4.79 4.98 5.05 4.95 4.79 4.43 4.13 3.88 3.63 3.41 3.16 2.96 2.86 2.79 2.72 2.93
0.07 0.09 0.07 0.08 0.08 0.10 0.11 0.15 0.19 0.24 0.24 0.32 0.51 0.74 1.07 1.12 1.20 1.23 1.14 1.21 1.40 1.75 2.02 2.55 2.86 3.06 3.49 4.01 4.48 4.81 4.99 4.87 4.49 4.15 4.00 3.90 3.85 3.46 3.18 3.15 3.30 3.13 3.13 3.16
0.10 0.09 0.08 0.08 0.07 0.10 0.15 0.17 0.20 0.21 0.25 0.44 0.58 1.07 1.32 1.20 1.18 1.16 1.13 1.22 1.40 1.83 2.31 2.61 2.81 2.93 3.18 3.59 3.89 4.00 4.18 4.15 4.00 4.04 4.07 4.03 4.06 3.66 3.59 3.60 3.62 3.40 3.39 3.40
0.07 0.06 0.07 0.09 0.11 0.13 0.18 0.16 0.15 0.18 0.29 0.55 0.66 1.36 1.75 1.48 1.37 1.44 1.43 1.39 1.65 1.94 1.99 2.20 2.49 2.77 2.94 3.17 3.49 3.71 3.77 3.72 3.65 3.77 3.84 3.75 3.57 3.46 3.63 3.90 3.83 3.56 3.35 3.23
0.06 0.07 0.08 0.11 0.11 0.11 0.15 0.15 0.18 0.23 0.32 0.54 0.71 1.10 1.64 1.58 1.74 1.70 1.54 1.59 1.85 1.83 1.73 1.84 2.05 2.38 2.51 2.84 3.11 3.32 3.57 3.66 3.61 3.68 3.68 3.72 3.56 3.55 3.61 3.62 3.67 3.48 3.30 2.99
0.07 0.08 0.08 0.09 0.09 0.10 0.13 0.18 0.29 0.38 0.54 0.94 0.76 0.89 1.46 1.56 1.49 1.48 1.46 1.41 1.58 1.54 1.51 1.73 1.91 2.21 2.37 2.50 2.64 2.75 2.96 3.23 3.41 3.45 3.42 3.48 3.43 3.42 3.39 3.38 3.28 3.08 2.93 2.74
0.12 0.14 0.12 0.10 0.11 0.13 0.15 0.28 0.72 1.10 1.29 1.29 0.69 0.82 1.34 1.25 1.17 1.17 1.28 1.31 1.33 1.25 1.24 1.47 1.64 1.81 2.03 2.14 2.26 2.41 2.70 3.04 3.11 3.07 3.03 3.14 3.22 3.24 3.18 3.17 3.03 2.82 2.59 2.38
0.20 0.27 0.17 0.12 0.13 0.15 0.18 0.25 0.65 0.98 1.08 1.06 0.87 1.27 1.68 1.26 1.09 1.11 1.19 1.20 1.14 1.05 1.00 1.14 1.41 1.73 1.90 1.90 1.97 2.13 2.44 2.71 2.75 2.67 2.81 3.07 3.15 3.18 3.10 3.14 2.83 2.57 2.37 2.32
0.16 0.16 0.12 0.12 0.16 0.16 0.18 0.21 0.30 0.49 0.59 0.88 1.13 1.42 1.42 0.97 0.90 0.95 1.01 1.05 1.16 1.10 1.01 1.08 1.18 1.40 1.54 1.61 1.68 1.83 2.26 2.55 2.64 2.71 2.83 2.96 3.07 3.03 2.99 2.91 2.63 2.37 2.39 2.33
0.13 0.12 0.13 0.13 0.13 0.16 0.18 0.22 0.27 0.39 0.65 1.00 1.21 1.50 1.61 1.13 0.91 0.69 0.67 0.78 0.84 0.85 0.86 0.93 0.98 1.10 1.21 1.39 1.66 1.85 2.02 2.35 2.45 2.55 2.71 2.74 2.97 2.86 2.70 2.66 2.43 2.18 2.10 2.17
0.11 0.11 0.14 0.15 0.16 0.18 0.20 0.22 0.25 0.30 0.43 0.74 1.27 1.47 1.12 0.91 0.76 0.72 0.71 0.80 0.83 0.80 0.77 0.82 0.95 1.08 1.18 1.33 1.55 1.69 1.73 1.96 2.16 2.30 2.48 2.47 2.46 2.53 2.60 2.43 2.17 2.08 2.10 2.17
0.08 0.10 0.15 0.20 0.25 0.22 0.20 0.19 0.23 0.31 0.32 0.43 0.78 1.12 0.80 0.79 0.81 0.79 0.79 0.86 0.93 0.90 0.83 0.88 1.04 1.17 1.25 1.39 1.44 1.49 1.58 1.79 2.00 2.19 2.40 2.46 2.44 2.49 2.53 2.38 2.19 2.16 2.20 2.20
0.09 0.11 0.23 0.40 0.50 0.34 0.22 0.18 0.20 0.22 0.21 0.36 0.68 0.98 0.68 0.61 0.77 0.95 1.24 1.40 1.16 0.98 0.91 0.97 1.08 1.12 1.12 1.23 1.38 1.42 1.44 1.65 1.89 2.11 2.41 2.58 2.62 2.58 2.50 2.32 2.09 2.00 1.95 1.98
0.14 0.12 0.21 0.47 0.57 0.46 0.32 0.22 0.19 0.18 0.23 0.33 0.46 0.77 0.70 0.73 0.82 1.01 1.17 1.08 1.04 0.97 0.93 1.00 1.02 1.14 1.14 1.16 1.31 1.34 1.41 1.52 1.79 2.03 2.24 2.37 2.26 2.19 2.19 2.08 1.89 1.79 1.77 1.79
0.19 0.15 0.14 0.20 0.32 0.34 0.31 0.27 0.23 0.20 0.19 0.33 0.43 0.60 0.69 0.75 0.86 1.08 1.22 1.17 1.06 0.90 0.84 0.86 0.87 0.94 0.99 1.12 1.25 1.18 1.23 1.31 1.48 1.67 1.77 1.91 1.89 1.85 1.82 1.87 1.89 1.87 1.90 1.85
0.24 0.26 0.22 0.23 0.27 0.31 0.34 0.33 0.28 0.23 0.20 0.26 0.39 0.63 0.84 0.83 0.87 1.03 1.06 0.91 0.77 0.70 0.59 0.56 0.74 0.84 0.80 0.84 0.95 0.92 0.97 1.13 1.29 1.38 1.48 1.72 1.83 1.83 1.82 1.88 2.00 2.01 1.97 1.95
0.30 0.35 0.36 0.35 0.32 0.32 0.42 0.42 0.36 0.29 0.28 0.30 0.44 0.67 0.94 0.81 0.72 0.82 0.88 0.84 0.77 0.76 0.59 0.53 0.61 0.76 0.76 0.77 0.80 0.91 1.04 1.18 1.29 1.43 1.58 1.78 1.89 1.96 1.98 1.95 2.07 2.02 2.02 2.09
0.46 0.50 0.45 0.43 0.53 0.63 0.48 0.39 0.40 0.40 0.42 0.38 0.53 0.57 0.72 0.71 0.74 0.86 0.87 0.85 0.71 0.71 0.65 0.60 0.58 0.59 0.64 0.71 0.79 0.95 1.24 1.49 1.55 1.69 1.89 2.00 2.13 2.08 2.06 2.07 2.10 2.18 2.27 2.31
0.40 0.60 0.60 0.58 0.72 0.64 0.55 0.41 0.47 0.53 0.71 0.73 0.81 0.79 0.74 0.71 0.82 0.91 0.78 0.70 0.73 0.64 0.60 0.65 0.69 0.71 0.76 0.82 0.86 1.04 1.27 1.59 1.79 1.84 1.94 2.10 2.20 2.24 2.25 2.26 2.25 2.35 2.49 2.45
0.45 0.61 0.76 0.72 0.88 0.87 0.74 0.55 0.56 0.72 1.25 1.10 1.06 1.04 0.91 0.82 0.99 1.11 1.02 0.93 0.86 0.77 0.71 0.72 0.75 0.87 1.06 1.13 1.14 1.26 1.40 1.54 1.74 1.81 1.92 2.09 2.33 2.39 2.42 2.57 2.68 2.65 2.62 2.49
0.78 0.84 0.88 0.88 0.95 1.05 0.88 0.76 0.79 1.31 1.66 1.31 1.15 1.11 1.06 1.16 1.21 1.16 1.02 1.01 0.94 0.82 0.82 0.80 0.83 0.99 1.24 1.37 1.41 1.51 1.67 1.75 1.76 1.84 1.99 2.18 2.35 2.45 2.53 2.73 2.82 2.81 2.75 2.75
0.99 1.05 1.05 1.06 1.27 1.49 1.02 0.97 1.38 1.69 1.42 1.41 1.42 1.37 1.26 1.24 1.20 1.13 1.04 1.05 0.98 0.90 0.94 0.97 1.02 1.18 1.41 1.57 1.56 1.64 1.74 1.76 1.80 1.81 1.95 2.09 2.23 2.25 2.34 2.63 2.73 2.85 2.90 2.85
1.10 1.21 1.28 1.42 1.57 1.43 1.19 1.26 1.42 1.54 1.69 1.60 1.53 1.59 1.39 1.37 1.25 1.14 1.09 1.05 1.02 0.96 0.99 1.06 1.12 1.31 1.58 1.76 1.79 1.87 1.79 1.87 1.90 1.92 2.05 2.19 2.26 2.30 2.40 2.52 2.57 2.68 2.76 2.72
1.36 1.22 1.42 1.68 1.70 1.59 1.48 1.35 1.17 1.29 1.41 1.40 1.42 1.45 1.43 1.36 1.25 1.15 1.07 1.01 0.99 1.01 0.97 1.05 1.17 1.26 1.37 1.58 1.79 1.91 1.95 1.99 1.99 2.02 2.08 2.17 2.28 2.26 2.35 2.48 2.58 2.70 2.78 2.86
1.59 1.41 1.63 1.94 1.81 1.67 1.65 1.50 1.37 1.45 1.51 1.43 1.36 1.35 1.37 1.32 1.24 1.11 1.09 1.06 1.03 1.03 0.99 1.05 1.16 1.23 1.29 1.37 1.49 1.57 1.70 1.82 1.88 1.96 2.03 2.07 2.11 2.20 2.31 2.38 2.50 2.47 2.54 2.58
1.68 1.68 1.94 2.27 1.96 1.80 1.77 1.57 1.41 1.48 1.46 1.55 1.65 1.62 1.39 1.28 1.36 1.29 1.17 1.08 1.08 1.10 1.09 1.11 1.18 1.20 1.22 1.32 1.50 1.58 1.67 1.79 1.93 2.03 2.06 2.02 1.97 2.04 2.11 2.19 2.22 2.25 2.13 2.12

GEFSCGP_prec_meanprecacc_348.txt.gz
Total_Precipitation_Accumulation
0.05 0.07 0.09 0.11 0.12 0.09 0.11 0.16 0.21 0.26 0.23 0.27 0.44 0.72 1.03 1.17 1.48 1.38 1.38 1.53 1.66 1.78 2.10 2.54 2.83 3.35 3.95 4.39 4.81 5.01 5.08 4.96 4.79 4.44 4.14 3.89 3.64 3.42 3.17 2.98 2.88 2.82 2.75 2.97
0.07 0.10 0.08 0.08 0.09 0.10 0.12 0.17 0.21 0.26 0.26 0.34 0.53 0.78 1.12 1.18 1.26 1.28 1.18 1.23 1.41 1.76 2.03 2.55 2.87 3.07 3.50 4.02 4.50 4.83 5.01 4.90 4.52 4.16 4.01 3.92 3.88 3.47 3.20 3.17 3.33 3.15 3.15 3.18
0.10 0.09 0.08 0.08 0.08 0.11 0.15 0.18 0.21 0.23 0.26 0.45 0.61 1.11 1.36 1.24 1.25 1.24 1.17 1.23 1.41 1.85 2.31 2.61 2.81 2.94 3.19 3.59 3.90 4.01 4.19 4.17 4.01 4.05 4.07 4.04 4.08 3.67 3.61 3.62 3.63 3.41 3.42 3.44
0.08 0.06 0.07 0.10 0.11 0.14 0.18 0.16 0.16 0.19 0.30 0.57 0.67 1.38 1.79 1.51 1.42 1.50 1.46 1.41 1.67 1.96 2.01 2.21 2.50 2.77 2.94 3.18 3.49 3.71 3.78 3.73 3.66 3.79 3.85 3.76 3.58 3.46 3.63 3.91 3.84 3.58 3.37 3.26
0.07 0.07 0.08 0.11 0.11 0.12 0.15 0.16 0.19 0.25 0.34 0.55 0.72 1.11 1.67 1.61 1.76 1.73 1.56 1.61 1.87 1.85 1.75 1.86 2.07 2.39 2.51 2.84 3.11 3.32 3.58 3.67 3.62 3.70 3.69 3.73 3.56 3.55 3.61 3.62 3.68 3.48 3.31 3.00
0.07 0.08 0.08 0.09 0.10 0.11 0.14 0.19 0.30 0.39 0.55 0.95 0.78 0.90 1.48 1.57 1.50 1.50 1.48 1.43 1.60 1.56 1.53 1.75 1.93 2.22 2.38 2.51 2.65 2.76 2.98 3.25 3.42 3.47 3.44 3.49 3.45 3.43 3.39 3.38 3.28 3.08 2.94 2.74
0.12 0.14 0.12 0.10 0.11 0.13 0.16 0.29 0.73 1.11 1.30 1.29 0.70 0.82 1.34 1.25 1.17 1.19 1.30 1.33 1.34 1.28 1.27 1.49 1.65 1.83 2.04 2.15 2.26 2.41 2.71 3.05 3.13 3.10 3.05 3.17 3.25 3.26 3.20 3.18 3.04 2.83 2.60 2.39
0.20 0.27 0.17 0.12 0.13 0.16 0.19 0.26 0.66 0.98 1.08 1.07 0.88 1.27 1.68 1.26 1.09 1.12 1.22 1.21 1.16 1.08 1.03 1.16 1.43 1.74 1.92 1.91 1.98 2.13 2.44 2.72 2.76 2.68 2.82 3.09 3.17 3.20 3.12 3.17 2.86 2.60 2.39 2.34
0.16 0.16 0.13 0.13 0.16 0.17 0.19 0.21 0.30 0.50 0.59 0.88 1.14 1.43 1.43 0.98 0.91 0.97 1.03 1.07 1.18 1.11 1.02 1.09 1.19 1.41 1.55 1.62 1.69 1.84 2.27 2.55 2.64 2.72 2.84 2.98 3.10 3.07 3.04 2.95 2.67 2.41 2.43 2.38
0.13 0.12 0.13 0.13 0.14 0.16 0.18 0.22 0.27 0.39 0.65 1.01 1.21 1.50 1.61 1.13 0.92 0.70 0.68 0.78 0.85 0.86 0.86 0.94 0.99 1.11 1.22 1.40 1.67 1.86 2.02 2.35 2.46 2.56 2.72 2.77 3.00 2.90 2.74 2.70 2.48 2.24 2.14 2.22
0.11 0.11 0.15 0.15 0.16 0.19 0.20 0.22 0.26 0.30 0.44 0.76 1.28 1.47 1.12 0.91 0.77 0.74 0.72 0.81 0.85 0.81 0.77 0.82 0.96 1.09 1.19 1.33 1.55 1.69 1.74 1.97 2.17 2.31 2.51 2.50 2.50 2.57 2.64 2.49 2.23 2.15 2.18 2.28
0.08 0.10 0.16 0.20 0.25 0.23 0.20 0.19 0.23 0.32 0.33 0.44 0.79 1.12 0.80 0.79 0.81 0.79 0.79 0.87 0.95 0.91 0.83 0.88 1.05 1.18 1.26 1.40 1.45 1.50 1.58 1.80 2.01 2.21 2.42 2.49 2.48 2.54 2.58 2.44 2.25 2.25 2.31 2.31
0.09 0.12 0.23 0.41 0.51 0.35 0.23 0.18 0.20 0.23 0.22 0.37 0.68 0.98 0.68 0.62 0.77 0.96 1.26 1.42 1.18 1.00 0.93 0.98 1.09 1.13 1.13 1.24 1.39 1.43 1.45 1.66 1.90 2.13 2.43 2.60 2.65 2.63 2.56 2.38 2.17 2.08 2.02 2.04
0.14 0.12 0.22 0.48 0.58 0.46 0.33 0.23 0.20 0.18 0.24 0.34 0.46 0.77 0.71 0.74 0.83 1.03 1.19 1.10 1.06 0.99 0.95 1.02 1.03 1.16 1.16 1.19 1.33 1.35 1.42 1.53 1.81 2.06 2.26 2.40 2.30 2.24 2.25 2.13 1.94 1.84 1.81 1.82
0.19 0.16 0.14 0.21 0.33 0.35 0.31 0.28 0.24 0.20 0.19 0.34 0.43 0.61 0.71 0.77 0.87 1.09 1.23 1.19 1.07 0.91 0.85 0.87 0.88 0.95 1.00 1.15 1.29 1.22 1.26 1.34 1.50 1.70 1.80 1.95 1.93 1.89 1.86 1.91 1.93 1.91 1.94 1.88
0.25 0.26 0.23 0.24 0.28 0.32 0.35 0.34 0.29 0.24 0.20 0.26 0.40 0.65 0.86 0.86 0.88 1.04 1.07 0.93 0.79 0.70 0.60 0.57 0.76 0.86 0.82 0.85 0.97 0.95 1.01 1.16 1.32 1.41 1.51 1.76 1.88 1.88 1.87 1.94 2.07 2.09 2.03 2.00
0.31 0.37 0.37 0.36 0.33 0.33 0.43 0.43 0.36 0.29 0.29 0.30 0.45 0.69 0.96 0.83 0.73 0.84 0.90 0.86 0.78 0.77 0.60 0.55 0.64 0.79 0.79 0.80 0.82 0.93 1.06 1.20 1.31 1.45 1.60 1.81 1.94 2.02 2.05 2.03 2.14 2.08 2.07 2.13
0.47 0.51 0.46 0.43 0.54 0.63 0.48 0.39 0.41 0.41 0.43 0.39 0.54 0.59 0.74 0.73 0.76 0.88 0.89 0.87 0.73 0.73 0.67 0.63 0.61 0.62 0.67 0.74 0.81 0.96 1.25 1.50 1.56 1.71 1.91 2.03 2.17 2.12 2.11 2.11 2.14 2.23 2.31 2.34
0.41 0.61 0.61 0.59 0.72 0.64 0.56 0.41 0.47 0.54 0.72 0.74 0.84 0.81 0.76 0.72 0.84 0.94 0.80 0.73 0.75 0.66 0.63 0.67 0.71 0.73 0.78 0.84 0.88 1.06 1.29 1.61 1.81 1.86 1.96 2.12 2.23 2.27 2.28 2.28 2.26 2.37 2.50 2.47
0.45 0.62 0.77 0.72 0.89 0.87 0.74 0.56 0.57 0.73 1.28 1.12 1.08 1.07 0.93 0.84 1.02 1.13 1.03 0.95 0.88 0.79 0.73 0.74 0.77 0.89 1.08 1.15 1.16 1.28 1.42 1.56 1.75 1.83 1.94 2.12 2.35 2.41 2.43 2.59 2.69 2.67 2.63 2.51
0.79 0.85 0.89 0.88 0.96 1.06 0.88 0.77 0.80 1.33 1.70 1.36 1.21 1.16 1.09 1.19 1.25 1.19 1.05 1.04 0.96 0.85 0.85 0.83 0.85 1.01 1.26 1.39 1.43 1.53 1.68 1.77 1.79 1.86 2.01 2.20 2.37 2.47 2.55 2.75 2.84 2.83 2.78 2.77
1.00 1.06 1.06 1.07 1.28 1.50 1.03 0.98 1.40 1.70 1.44 1.47 1.47 1.41 1.29 1.27 1.22 1.15 1.06 1.08 1.01 0.92 0.97 1.00 1.04 1.20 1.43 1.59 1.57 1.65 1.76 1.78 1.82 1.83 1.98 2.11 2.26 2.28 2.37 2.66 2.76 2.88 2.93 2.88
1.10 1.21 1.29 1.44 1.59 1.45 1.21 1.29 1.44 1.56 1.72 1.63 1.55 1.62 1.42 1.39 1.27 1.16 1.11 1.07 1.04 0.98 1.01 1.08 1.14 1.33 1.59 1.77 1.80 1.88 1.80 1.88 1.92 1.94 2.07 2.21 2.28 2.32 2.42 2.55 2.60 2.70 2.78 2.74
1.36 1.22 1.43 1.70 1.72 1.61 1.50 1.37 1.20 1.31 1.43 1.41 1.43 1.47 1.45 1.38 1.27 1.17 1.09 1.03 1.01 1.02 0.99 1.07 1.18 1.27 1.38 1.59 1.80 1.92 1.96 2.01 2.01 2.05 2.11 2.20 2.30 2.29 2.37 2.50 2.61 2.72 2.81 2.89
1.60 1.41 1.63 1.94 1.82 1.69 1.67 1.52 1.39 1.47 1.53 1.44 1.38 1.37 1.39 1.35 1.27 1.13 1.10 1.07 1.05 1.04 1.01 1.06 1.18 1.24 1.31 1.39 1.52 1.59 1.72 1.84 1.91 1.98 2.06 2.10 2.13 2.22 2.34 2.41 2.52 2.51 2.58 2.61
1.68 1.69 1.95 2.28 1.97 1.81 1.79 1.60 1.43 1.50 1.48 1.56 1.67 1.64 1.40 1.29 1.37 1.30 1.17 1.09 1.08 1.11 1.10 1.12 1.19 1.21 1.24 1.33 1.52 1.60 1.68 1.81 1.96 2.07 2.11 2.06 2.01 2.08 2.13 2.21 2.24 2.27 2.16 2.16

GEFSCGP_prec_meanprecacc_354.txt.gz
Total_Precipitation_Accumulation
0.05 0.07 0.09 0.11 0.12 0.10 0.11 0.16 0.22 0.26 0.23 0.28 0.45 0.73 1.04 1.20 1.50 1.41 1.41 1.56 1.68 1.80 2.11 2.55 2.85 3.37 3.96 4.40 4.82 5.02 5.10 4.98 4.82 4.46 4.16 3.91 3.66 3.44 3.19 3.00 2.91 2.84 2.78 2.99
0.07 0.10 0.08 0.09 0.09 0.10 0.12 0.17 0.21 0.26 0.26 0.35 0.54 0.79 1.13 1.20 1.28 1.29 1.19 1.25 1.43 1.77 2.04 2.56 2.88 3.09 3.50 4.02 4.50 4.83 5.02 4.91 4.53 4.18 4.03 3.95 3.91 3.50 3.22 3.20 3.36 3.18 3.18 3.21
0.10 0.09 0.08 0.08 0.08 0.11 0.16 0.18 0.21 0.23 0.26 0.46 0.62 1.12 1.38 1.26 1.27 1.25 1.18 1.25 1.42 1.86 2.32 2.61 2.81 2.95 3.19 3.59 3.90 4.01 4.20 4.17 4.02 4.06 4.09 4.06 4.10 3.69 3.63 3.64 3.66 3.44 3.44 3.46
0.08 0.06 0.07 0.10 0.11 0.14 0.19 0.16 0.16 0.20 0.30 0.57 0.68 1.40 1.80 1.52 1.43 1.51 1.47 1.42 1.68 1.97 2.02 2.22 2.50 2.77 2.94 3.18 3.50 3.71 3.78 3.74 3.67 3.79 3.86 3.77 3.59 3.48 3.65 3.93 3.86 3.59 3.39 3.27
0.07 0.07 0.08 0.11 0.11 0.12 0.15 0.16 0.19 0.25 0.34 0.55 0.72 1.13 1.68 1.61 1.77 1.73 1.56 1.61 1.88 1.86 1.76 1.87 2.07 2.39 2.51 2.84 3.12 3.32 3.58 3.67 3.62 3.71 3.70 3.74 3.57 3.56 3.62 3.64 3.69 3.50 3.32 3.01
0.07 0.08 0.08 0.09 0.10 0.12 0.15 0.20 0.30 0.39 0.56 0.96 0.78 0.91 1.49 1.58 1.51 1.51 1.48 1.43 1.61 1.57 1.54 1.76 1.93 2.23 2.38 2.51 2.65 2.76 2.98 3.25 3.43 3.47 3.45 3.50 3.46 3.45 3.40 3.39 3.29 3.09 2.94 2.75
0.12 0.14 0.12 0.10 0.12 0.14 0.16 0.30 0.74 1.12 1.31 1.30 0.70 0.83 1.35 1.26 1.18 1.19 1.30 1.33 1.34 1.29 1.28 1.50 1.66 1.84 2.04 2.15 2.27 2.42 2.71 3.05 3.14 3.10 3.05 3.17 3.26 3.27 3.20 3.19 3.05 2.84 2.61 2.40
0.20 0.27 0.17 0.12 0.13 0.16 0.19 0.26 0.67 0.99 1.09 1.07 0.88 1.28 1.68 1.27 1.09 1.12 1.22 1.21 1.16 1.08 1.04 1.20 1.47 1.77 1.93 1.91 1.98 2.14 2.45 2.72 2.76 2.69 2.83 3.10 3.18 3.21 3.13 3.17 2.87 2.61 2.41 2.36
0.16 0.16 0.13 0.13 0.16 0.17 0.19 0.21 0.31 0.51 0.60 0.88 1.14 1.43 1.43 0.98 0.91 0.97 1.03 1.07 1.18 1.11 1.04 1.13 1.23 1.43 1.56 1.62 1.69 1.84 2.27 2.55 2.64 2.72 2.85 2.99 3.12 3.08 3.04 2.95 2.68 2.42 2.44 2.40
0.13 0.12 0.14 0.13 0.14 0.17 0.18 0.22 0.28 0.40 0.66 1.01 1.22 1.50 1.61 1.14 0.92 0.70 0.68 0.79 0.85 0.86 0.87 0.95 1.00 1.12 1.22 1.40 1.67 1.86 2.02 2.35 2.46 2.57 2.74 2.77 3.01 2.91 2.75 2.72 2.50 2.26 2.18 2.28
0.11 0.12 0.15 0.15 0.16 0.19 0.21 0.23 0.27 0.32 0.45 0.77 1.29 1.48 1.12 0.92 0.77 0.74 0.72 0.81 0.85 0.81 0.77 0.82 0.96 1.09 1.19 1.33 1.55 1.69 1.74 1.98 2.18 2.31 2.51 2.51 2.51 2.58 2.67 2.53 2.27 2.19 2.24 2.35
0.08 0.10 0.16 0.21 0.26 0.23 0.21 0.19 0.24 0.33 0.34 0.45 0.80 1.13 0.80 0.79 0.81 0.80 0.80 0.87 0.95 0.92 0.84 0.89 1.05 1.18 1.26 1.40 1.45 1.50 1.59 1.80 2.01 2.21 2.43 2.50 2.49 2.55 2.60 2.46 2.27 2.27 2.35 2.36
0.10 0.12 0.24 0.42 0.52 0.36 0.23 0.18 0.21 0.23 0.23 0.38 0.69 0.99 0.68 0.62 0.78 0.97 1.26 1.42 1.18 1.01 0.93 0.98 1.09 1.13 1.13 1.24 1.39 1.43 1.45 1.67 1.90 2.14 2.45 2.62 2.66 2.64 2.57 2.39 2.18 2.10 2.05 2.07
0.14 0.13 0.22 0.49 0.58 0.47 0.33 0.23 0.20 0.19 0.24 0.35 0.47 0.78 0.72 0.74 0.83 1.03 1.19 1.11 1.07 1.00 0.96 1.03 1.04 1.16 1.16 1.19 1.33 1.36 1.43 1.54 1.82 2.07 2.28 2.42 2.32 2.26 2.27 2.14 1.96 1.86 1.85 1.87
0.19 0.16 0.15 0.21 0.33 0.35 0.32 0.29 0.25 0.21 0.20 0.35 0.44 0.62 0.73 0.78 0.88 1.10 1.24 1.19 1.08 0.92 0.86 0.88 0.89 0.96 1.01 1.15 1.30 1.24 1.28 1.35 1.52 1.73 1.83 1.99 1.98 1.94 1.89 1.93 1.97 1.96 2.00 1.94
0.25 0.27 0.23 0.24 0.28 0.33 0.36 0.34 0.29 0.24 0.21 0.27 0.41 0.65 0.87 0.87 0.89 1.05 1.07 0.94 0.80 0.72 0.61 0.58 0.77 0.86 0.82 0.86 0.98 0.96 1.01 1.17 1.35 1.45 1.57 1.82 1.94 1.95 1.92 1.98 2.12 2.14 2.09 2.05
0.31 0.37 0.38 0.37 0.34 0.34 0.44 0.43 0.37 0.30 0.29 0.30 0.45 0.69 0.96 0.84 0.74 0.85 0.91 0.86 0.79 0.79 0.61 0.56 0.64 0.79 0.79 0.80 0.83 0.95 1.08 1.22 1.33 1.48 1.63 1.84 1.96 2.05 2.09 2.07 2.17 2.11 2.12 2.18
0.47 0.52 0.46 0.44 0.55 0.65 0.49 0.40 0.41 0.41 0.43 0.39 0.54 0.59 0.75 0.74 0.77 0.89 0.89 0.88 0.74 0.73 0.68 0.64 0.63 0.63 0.67 0.75 0.82 0.98 1.26 1.51 1.57 1.72 1.92 2.04 2.18 2.14 2.12 2.12 2.15 2.24 2.32 2.36
0.41 0.61 0.61 0.60 0.73 0.65 0.56 0.41 0.48 0.54 0.72 0.74 0.84 0.82 0.77 0.73 0.85 0.95 0.81 0.74 0.76 0.67 0.63 0.68 0.73 0.74 0.80 0.86 0.90 1.07 1.30 1.62 1.81 1.87 1.97 2.13 2.24 2.28 2.29 2.29 2.27 2.39 2.52 2.48
0.45 0.62 0.77 0.73 0.90 0.88 0.74 0.56 0.57 0.73 1.28 1.12 1.08 1.07 0.94 0.85 1.03 1.14 1.04 0.96 0.89 0.80 0.74 0.75 0.78 0.91 1.10 1.17 1.18 1.30 1.43 1.56 1.77 1.85 1.96 2.14 2.37 2.43 2.44 2.60 2.70 2.68 2.65 2.52
0.79 0.85 0.90 0.89 0.96 1.06 0.88 0.77 0.80 1.34 1.71 1.36 1.21 1.16 1.11 1.21 1.26 1.20 1.05 1.05 0.97 0.86 0.86 0.84 0.87 1.04 1.29 1.42 1.45 1.55 1.70 1.79 1.81 1.88 2.02 2.21 2.39 2.49 2.57 2.76 2.86 2.85 2.79 2.79
1.00 1.07 1.07 1.08 1.29 1.51 1.03 0.98 1.40 1.71 1.44 1.47 1.47 1.42 1.31 1.28 1.23 1.17 1.08 1.10 1.03 0.94 0.98 1.01 1.06 1.24 1.48 1.65 1.63 1.71 1.80 1.81 1.84 1.85 1.99 2.13 2.29 2.30 2.38 2.67 2.78 2.90 2.95 2.89
1.11 1.22 1.30 1.45 1.60 1.46 1.22 1.29 1.44 1.56 1.72 1.64 1.56 1.63 1.43 1.40 1.28 1.17 1.13 1.10 1.06 0.99 1.02 1.08 1.14 1.34 1.61 1.80 1.83 1.91 1.83 1.91 1.95 1.97 2.09 2.22 2.30 2.34 2.44 2.57 2.62 2.72 2.80 2.76
1.37 1.24 1.44 1.72 1.74 1.62 1.51 1.38 1.20 1.32 1.44 1.43 1.44 1.48 1.46 1.39 1.28 1.18 1.10 1.04 1.01 1.03 0.99 1.07 1.19 1.28 1.40 1.61 1.83 1.95 1.98 2.03 2.03 2.06 2.12 2.21 2.32 2.31 2.40 2.53 2.64 2.74 2.82 2.91
1.62 1.43 1.65 1.95 1.83 1.70 1.68 1.53 1.40 1.47 1.53 1.45 1.38 1.37 1.39 1.36 1.28 1.13 1.10 1.08 1.05 1.05 1.01 1.07 1.19 1.25 1.32 1.40 1.53 1.60 1.73 1.85 1.93 2.02 2.08 2.11 2.15 2.24 2.36 2.43 2.55 2.53 2.60 2.64
1.69 1.70 1.96 2.29 1.98 1.82 1.80 1.60 1.44 1.50 1.49 1.58 1.67 1.64 1.41 1.30 1.38 1.30 1.18 1.10 1.10 1.12 1.12 1.13 1.20 1.22 1.24 1.34 1.52 1.60 1.69 1.82 1.98 2.10 2.13 2.09 2.03 2.10 2.16 2.23 2.26 2.29 2.18 2.17

GEFSCGP_prec_meanprecacc_360.txt.gz
Total_Precipitation_Accumulation
0.06 0.08 0.11 0.13 0.13 0.10 0.11 0.16 0.22 0.27 0.24 0.28 0.46 0.75 1.06 1.22 1.52 1.43 1.43 1.58 1.70 1.82 2.12 2.56 2.85 3.37 3.96 4.40 4.83 5.04 5.12 5.01 4.86 4.52 4.22 3.97 3.72 3.51 3.24 3.04 2.96 2.91 2.83 3.04
0.07 0.11 0.09 0.09 0.09 0.10 0.12 0.18 0.22 0.26 0.27 0.35 0.55 0.81 1.16 1.24 1.33 1.31 1.21 1.27 1.46 1.80 2.05 2.56 2.88 3.09 3.51 4.03 4.51 4.84 5.04 4.93 4.55 4.22 4.08 4.00 3.96 3.56 3.29 3.26 3.42 3.23 3.22 3.25
0.11 0.11 0.09 0.08 0.08 0.11 0.16 0.19 0.23 0.24 0.26 0.46 0.63 1.14 1.39 1.30 1.30 1.28 1.22 1.27 1.45 1.89 2.33 2.61 2.82 2.95 3.19 3.59 3.90 4.01 4.21 4.19 4.03 4.08 4.12 4.10 4.13 3.73 3.67 3.69 3.71 3.48 3.48 3.50
0.08 0.06 0.07 0.10 0.12 0.15 0.22 0.21 0.18 0.21 0.31 0.58 0.70 1.43 1.83 1.62 1.50 1.56 1.55 1.46 1.71 1.99 2.03 2.22 2.50 2.77 2.94 3.18 3.50 3.71 3.78 3.75 3.68 3.81 3.88 3.79 3.61 3.50 3.67 3.95 3.90 3.63 3.42 3.31
0.08 0.07 0.08 0.11 0.12 0.15 0.19 0.19 0.21 0.26 0.35 0.58 0.75 1.17 1.73 1.65 1.82 1.78 1.59 1.65 1.92 1.88 1.76 1.88 2.08 2.40 2.52 2.84 3.12 3.32 3.59 3.68 3.63 3.72 3.72 3.76 3.59 3.58 3.64 3.66 3.72 3.52 3.34 3.03
0.07 0.08 0.08 0.09 0.10 0.12 0.15 0.20 0.31 0.42 0.59 1.02 0.82 0.95 1.55 1.63 1.53 1.53 1.50 1.45 1.64 1.57 1.54 1.76 1.94 2.23 2.39 2.51 2.65 2.76 2.98 3.25 3.43 3.48 3.45 3.51 3.47 3.46 3.42 3.42 3.33 3.11 2.96 2.77
0.12 0.14 0.12 0.10 0.12 0.14 0.16 0.30 0.78 1.20 1.39 1.35 0.72 0.85 1.38 1.27 1.18 1.20 1.31 1.33 1.36 1.30 1.28 1.51 1.67 1.84 2.05 2.16 2.27 2.42 2.71 3.06 3.14 3.10 3.06 3.18 3.27 3.28 3.22 3.21 3.07 2.85 2.63 2.41
0.21 0.28 0.18 0.12 0.13 0.16 0.19 0.27 0.73 1.08 1.21 1.13 0.89 1.30 1.71 1.27 1.09 1.13 1.23 1.22 1.17 1.09 1.05 1.21 1.48 1.79 1.94 1.92 1.99 2.14 2.45 2.72 2.76 2.70 2.84 3.12 3.19 3.23 3.16 3.20 2.88 2.63 2.42 2.38
0.17 0.19 0.13 0.13 0.16 0.17 0.19 0.22 0.32 0.53 0.64 0.92 1.15 1.45 1.45 0.99 0.92 0.98 1.05 1.08 1.18 1.12 1.04 1.14 1.24 1.45 1.57 1.63 1.70 1.85 2.28 2.57 2.66 2.74 2.87 3.01 3.13 3.10 3.06 2.97 2.70 2.44 2.46 2.42
0.13 0.13 0.14 0.13 0.14 0.17 0.18 0.23 0.28 0.42 0.70 1.06 1.25 1.54 1.67 1.18 0.95 0.71 0.69 0.79 0.85 0.86 0.87 0.95 1.01 1.13 1.24 1.41 1.68 1.87 2.05 2.37 2.48 2.58 2.75 2.78 3.02 2.92 2.77 2.74 2.52 2.29 2.20 2.31
0.12 0.12 0.15 0.15 0.16 0.20 0.21 0.23 0.27 0.33 0.47 0.82 1.37 1.56 1.19 0.96 0.82 0.76 0.72 0.81 0.85 0.81 0.78 0.83 0.96 1.10 1.20 1.35 1.57 1.71 1.76 1.99 2.18 2.32 2.52 2.51 2.52 2.60 2.70 2.55 2.28 2.22 2.26 2.39
0.08 0.10 0.17 0.22 0.26 0.23 0.21 0.20 0.24 0.35 0.36 0.48 0.86 1.20 0.83 0.82 0.86 0.82 0.81 0.87 0.95 0.92 0.84 0.89 1.06 1.19 1.27 1.42 1.48 1.53 1.60 1.81 2.02 2.22 2.44 2.51 2.51 2.57 2.62 2.48 2.29 2.29 2.37 2.39
0.10 0.12 0.27 0.47 0.53 0.36 0.23 0.19 0.21 0.24 0.25 0.40 0.74 1.06 0.72 0.65 0.79 0.98 1.27 1.43 1.18 1.01 0.94 1.00 1.10 1.16 1.15 1.26 1.41 1.45 1.47 1.68 1.91 2.15 2.46 2.63 2.69 2.67 2.60 2.41 2.21 2.12 2.08 2.12
0.15 0.14 0.27 0.55 0.63 0.50 0.35 0.24 0.21 0.20 0.28 0.37 0.49 0.81 0.78 0.79 0.86 1.05 1.20 1.12 1.07 1.01 0.96 1.04 1.05 1.18 1.17 1.20 1.35 1.38 1.44 1.55 1.83 2.08 2.29 2.45 2.35 2.29 2.31 2.18 1.99 1.90 1.90 1.93
0.20 0.18 0.19 0.23 0.34 0.36 0.33 0.30 0.26 0.22 0.21 0.37 0.46 0.64 0.76 0.84 0.92 1.12 1.25 1.20 1.08 0.93 0.86 0.89 0.90 0.97 1.02 1.16 1.31 1.25 1.29 1.37 1.54 1.74 1.85 2.02 2.02 1.98 1.97 2.00 2.02 2.03 2.07 2.00
0.25 0.29 0.28 0.27 0.29 0.33 0.37 0.35 0.30 0.25 0.22 0.28 0.42 0.67 0.88 0.90 0.91 1.06 1.08 0.95 0.81 0.72 0.61 0.58 0.77 0.87 0.84 0.86 0.98 0.96 1.02 1.18 1.36 1.46 1.59 1.85 1.99 2.02 2.01 2.07 2.21 2.25 2.19 2.14
0.31 0.38 0.41 0.39 0.34 0.35 0.46 0.45 0.38 0.30 0.29 0.31 0.47 0.70 0.97 0.84 0.75 0.86 0.92 0.87 0.80 0.79 0.61 0.57 0.65 0.81 0.83 0.83 0.84 0.96 1.10 1.23 1.34 1.49 1.64 1.86 2.00 2.10 2.17 2.18 2.30 2.24 2.23 2.28
0.47 0.52 0.47 0.46 0.57 0.68 0.51 0.41 0.41 0.41 0.43 0.39 0.55 0.60 0.76 0.75 0.77 0.90 0.91 0.90 0.75 0.74 0.69 0.67 0.65 0.66 0.73 0.81 0.86 1.00 1.28 1.53 1.59 1.74 1.93 2.05 2.20 2.17 2.15 2.16 2.21 2.31 2.41 2.45
0.41 0.62 0.62 0.62 0.76 0.67 0.57 0.42 0.48 0.54 0.73 0.75 0.85 0.83 0.79 0.75 0.88 0.98 0.84 0.78 0.78 0.68 0.65 0.72 0.76 0.78 0.87 0.93 0.96 1.12 1.32 1.64 1.84 1.89 2.00 2.16 2.27 2.30 2.31 2.31 2.30 2.43 2.55 2.52
0.46 0.62 0.78 0.76 0.92 0.90 0.76 0.56 0.57 0.75 1.31 1.13 1.09 1.10 0.97 0.87 1.08 1.20 1.09 1.00 0.93 0.83 0.75 0.76 0.80 0.93 1.14 1.21 1.24 1.36 1.47 1.60 1.79 1.88 2.01 2.18 2.41 2.46 2.47 2.62 2.72 2.70 2.67 2.55
0.80 0.87 0.91 0.90 0.98 1.09 0.90 0.77 0.81 1.37 1.75 1.37 1.23 1.20 1.15 1.24 1.28 1.22 1.08 1.10 1.02 0.88 0.87 0.85 0.88 1.06 1.32 1.46 1.51 1.62 1.75 1.85 1.85 1.91 2.06 2.25 2.43 2.53 2.59 2.78 2.87 2.87 2.82 2.82
1.01 1.09 1.09 1.11 1.33 1.54 1.05 0.99 1.42 1.73 1.46 1.47 1.48 1.45 1.34 1.30 1.24 1.18 1.10 1.13 1.06 0.95 0.99 1.02 1.07 1.25 1.50 1.70 1.67 1.76 1.85 1.86 1.89 1.87 2.01 2.16 2.32 2.33 2.40 2.70 2.80 2.92 2.97 2.92
1.12 1.23 1.33 1.48 1.63 1.48 1.23 1.30 1.45 1.57 1.73 1.65 1.58 1.65 1.44 1.40 1.29 1.19 1.15 1.12 1.07 1.00 1.02 1.09 1.15 1.36 1.63 1.83 1.86 1.94 1.87 1.95 1.99 2.01 2.12 2.25 2.33 2.38 2.48 2.59 2.64 2.74 2.81 2.77
1.38 1.24 1.46 1.73 1.75 1.63 1.52 1.38 1.21 1.33 1.45 1.44 1.46 1.50 1.47 1.40 1.29 1.19 1.11 1.04 1.02 1.04 1.00 1.08 1.20 1.30 1.42 1.62 1.84 1.97 2.01 2.05 2.06 2.11 2.17 2.27 2.37 2.35 2.42 2.55 2.66 2.76 2.83 2.92
1.63 1.44 1.66 1.98 1.85 1.71 1.70 1.55 1.41 1.48 1.55 1.47 1.40 1.38 1.40 1.37 1.28 1.14 1.11 1.09 1.06 1.06 1.02 1.08 1.20 1.27 1.34 1.41 1.54 1.61 1.74 1.87 1.96 2.07 2.16 2.18 2.21 2.28 2.39 2.46 2.57 2.56 2.63 2.67
1.72 1.73 2.00 2.33 2.00 1.84 1.82 1.62 1.45 1.52 1.51 1.59 1.69 1.65 1.42 1.31 1.38 1.31 1.18 1.10 1.11 1.13 1.13 1.15 1.22 1.25 1.27 1.36 1.55 1.62 1.70 1.84 2.01 2.14 2.17 2.14 2.09 2.14 2.19 2.26 2.28 2.31 2.20 2.19